Regional Weather Roundup
Issued by NWS Austin/San Antonio, TX

Home | Current Version | Previous Version | Text Only | Print | Product List | Glossary On
Versions: 1 2 3 4 5 6 7 8 9 10 11 12 13 14 15 16 17 18 19 20 21 22 23 24 25 26 27 28 29 30 31 32 33 34 35 36 37 38 39 40 41 42 43 44 45 46 47 48 49 50
119
ASUS44 KEWX 190110
RWREWX
SOUTH TEXAS REGIONAL WEATHER ROUNDUP
NATIONAL WEATHER SERVICE AUSTIN/SAN ANTONIO TX
800 PM CDT FRI AUG 18 2017

NOTE: "FAIR" INDICATED FEW OR NO CLOUDS BELOW 12,000 FEET WITH NO
SIGNIFICANT WEATHER AND/OR OBSTRUCTIONS TO VISIBILITY.

* - THESE STATIONS ARE NOT NWS OR FAA STATIONS...AND ARE NOT SUBJECT
    TO NWS AND FAA QUALITY CONTROL.

TXZ171-172-183>190-190200-
TEXAS HILL COUNTRY AND EDWARDS PLATEAU

CITY           SKY/WX    TMP DP  RH WIND       PRES   REMARKS
JUNCTION       MOCLDY    92  65  40 NE5       29.99R HX  94
*LLANO         CLEAR     90  66  45 CALM      29.99R HX  92
BURNET         CLEAR     92  66  42 E7        30.00R HX  94
*HORSESHOE BAY CLEAR     92  65  40 SE6       29.96R HX  93
*KERRVILLE     CLEAR     89  68  50 S6        30.01R HX  93
*FREDERICKSBRG CLEAR     88  60  39 S5        30.00R
*ROCKSPRINGS   NOT AVBL
*BOERNE STAGE  CLEAR    N/A N/A N/A SE3       30.01R
*CASTROVILLE   CLEAR     94  63  35 E5        29.96R HX  94
HONDO          CLEAR     95  67  39 E8        29.95R HX  99
*UVALDE        CLEAR     95  63  34 E9        29.94R HX  96
DEL RIO        PTCLDY    98  61  29 SE7       29.89R HX  98
LAUGHLIN AFB   MOCLDY    96  63  33 E9        29.90R HX  98
CARRIZO SPRGS  PTCLDY    99  61  28 E10G16    29.87R HX  99
*EAGLE PASS    NOT AVBL
$$

TXZ173-191>194-202-209-217>225-228-190200-
CENTRAL AND SOUTH CENTRAL TEXAS

CITY           SKY/WX    TMP DP  RH WIND       PRES   REMARKS
GEORGETOWN     CLEAR     94  66  39 SE3       29.97R HX  97
AUSTIN/BERGSTM PTCLDY    94  68  42 CALM      29.93R HX  98
AUSTIN/MABRY   CLEAR     94  63  35 CALM      29.95R HX  95
*AUSTIN/EXEC   CLEAR     91  68  46 E6        29.95R HX  95
*LAGO VISTA    CLEAR     90  66  45 CALM      29.98S HX  92
SAN MARCOS     CLEAR     93  67  42 E5        29.94R HX  96
NEW BRAUNFELS  CLEAR     93  66  40 SE6       29.92R HX  96
RANDOLPH AFB   CLEAR     90  67  46 SE5       29.94R HX  93
PT SAN ANTONIO CLEAR     94  67  41 E8        29.93R HX  98
SAN ANTONIO    PTCLDY    92  65  40 SE9       29.95  HX  94
STINSON FIELD  CLEAR     94  68  42 SE6       29.91R HX  98
*LA GRANGE     CLEAR     95  70  43 SE3       29.92R HX 101
*GIDDINGS      CLEAR     92  65  39 E5        29.94S HX  94
*GONZALES      CLEAR     95  69  42 SE12G18   29.92R HX 101
$$

TXZ163>164-176>182-195>201-210>213-226-227-235-190200-
SOUTHEAST TEXAS

CITY           SKY/WX    TMP DP  RH WIND       PRES   REMARKS
COLLEGE STN    CLEAR     93  70  46 SE10      29.93S HX  99
*BRYAN         CLEAR     92  68  46 SE7       29.95R HX  96
*CALDWELL      NOT AVBL
*CROCKETT      CLEAR     90  72  55 SE5       29.97R HX  96
*BRENHAM       CLEAR     92  69  46 SE5       29.95R HX  97
HUNTSVILLE     CLEAR     93  65  39 VRB3      29.95  HX  95
CONROE         CLEAR     89  73  59 SE6       29.96R HX  97
HOUSTON BUSH   PTCLDY    89  75  63 S7        29.96R HX  99
HOUSTON HOBBY  PTCLDY    89  74  60 S9        29.97R HX  98
*HOUSTON SW AP CLEAR     86  75  70 S7        29.97R HX  95
PEARLAND       CLEAR     90  74  59 S8        29.99R HX  99
HOUSTON HOOKS  CLEAR     90  75  61 SE6       29.96R HX 100
ELLINGTON FLD  PTCLDY    90  75  62 SE7       29.99  HX 100
SUGAR LAND     MOCLDY    90  74  59 S18       29.95R HX  99
*HOUSTON EXEC  PTCLDY    90  77  66 E5        29.96R HX 102
*CLEVELAND MUN CLEAR     84  79  85 CALM      29.97R HAZE    HX  95
*WHARTON       CLEAR     86  71  61 SE7       29.97R HX  91
*COLUMBUS      FAIR      91  68  47 SE5       29.95R HX  94
*EAGLE LAKE    CLEAR     92  74  57 SE6       29.94S HX 102
$$

TXZ214>216-236>238-190200-
THE UPPER TEXAS COAST

CITY           SKY/WX    TMP DP  RH WIND       PRES   REMARKS
*ORANGE        CLEAR     86  79  78 S6        29.99R HX 100
PORT ARTHUR    CLEAR     84  77  79 S8        29.97R HX  94
GALVESTON      CLEAR     86  78  77 S12       29.99R HX  98
ANGLETON       CLEAR     86  77  74 S10       29.98R HX  97
*BAY CITY      CLEAR     86  76  72 SE6       29.97R HX  96
PALACIOS       CLEAR     83  75  77 SE14      29.96R HX  90
$$

TXZ229>234-239>247-190200-
TEXAS COASTAL BEND AND RIO GRANDE PLAINS

CITY           SKY/WX    TMP DP  RH WIND       PRES   REMARKS
VICTORIA       CLEAR     88  71  57 SE16      29.95  HX  94
*BEEVILLE      CLEAR     89  73  58 SE12      29.95R HX  97
ROCKPORT         N/A     92  76  59 SE16      29.95R HX 104
*PORT ARANSAS  CLEAR     85  76  76 SE13G18   29.96R HX  94
*PORT LAVACA   CLEAR     85  74  68 SE10      29.97R HX  92
*INGLESIDE     CLEAR     87  77  72 MISG      29.94R HX  98
CORPUS CHRISTI PTCLDY    86  76  71 SE18      29.94  HX  96
CORPUS NAS     CLEAR     86  78  77 SE21      29.95R HX  98
*ROBSTOWN      CLEAR     88  74  62 SE15G23   29.95R HX  97
ALICE          CLEAR     88  71  57 SE18      29.94R HX  94
KINGSVILLE NAS CLEAR     86  77  74 SE18G26   29.94R HX  97
COTULLA        PTCLDY    99  58  25 SE14      29.89R HX  98
*FAITH RANCH   MOCLDY   100  59  25 E9        29.88R HX 100
LAREDO         CLEAR     99  64  31 SE13      29.89R HX 101
$$

TXZ248>255-190200-
DEEP SOUTH TEXAS

CITY           SKY/WX    TMP DP  RH WIND       PRES   REMARKS
BROWNSVILLE    CLEAR     86  76  71 SE14      29.96R HX  96
PORT ISABEL    CLEAR     86  78  77 SE15      29.95R HX  98
*SOUTH PADRE   NOT AVBL
HARLINGEN      CLEAR     87  73  62 SE20      29.94R HX  94
*HEBBRONVILLE  CLEAR     91  70  50 SE17G25   29.95R HX  96
MCALLEN        CLEAR     92  72  51 E20G29    29.93R HX  99
*WESLACO       CLEAR     89  71  56 SE15G21   29.93R HX  95
FALFURRIAS     CLEAR     89  73  58 CALM      29.93R HX  96
EDINBURG       CLEAR     92  68  45 SE16G24   29.94R HX  95
*ZAPATA        CLEAR     99  60  28 SE12G20   29.88R HX  99
$$

TXZ213>215-236>238-242>244-246-247-251-254-255-190200-
CMAN STATIONS

STATION/POSITION TIME  TEMP    WIND        PRES    WAVE
                       AIR SEA DIR/SP/G            HT/PER
                 (UTC) (F)     (DEG/KT/KT) (MB)    (FT/S)
SABINE PASS      0048   86 91  180/  6/  9 1016.9
SEA RIM ST PARK  0000   87     200/  6/  8 1015.6
NORTH JETTY/GLS  0048          160/ 10/ 12   N/A
EAGLE POINT      0048   87 90  180/ 12/ 13 1015.2
MORGANS POINT    0048   88 88  160/  7/ 11 1014.9
PORT O`CONNOR    0048   86     130/ 15/ 17 1014.3
PORT ARANSAS     0000   85 89  110/ 13/ 15 1014.2
MALAQUITE BEACH  0048   84 85  100/ 14/ 16 1013.7
BAFFIN BAY       0048   84 90              1014.4
PORT ISABEL      0048   85 85              1014.3
$$




USA.gov is the U.S. government's official web portal to all federal, state and local government web resources and services.